Regional Weather Roundup
Issued by NWS Memphis, TN

Home | Current Version | Previous Version | Text Only | Print | Product List | Glossary On
Versions: 1 2 3 4 5 6 7 8 9 10 11 12 13 14 15 16 17 18 19 20 21 22 23 24 25 26 27 28 29 30 31 32 33 34 35 36 37 38 39 40 41 42 43 44 45 46 47 48 49 50
713
ASUS44 KMEG 272110
RWRMEG
MEMPHIS CWA HOURLY WEATHER ROUNDUP
NATIONAL WEATHER SERVICE MEMPHIS TN
400 PM CDT TUE SEP 27 2016

...WEST TENNESSEE...

CITY           SKY/WX    TMP DP  RH WIND       PRES   REMARKS
MEMPHIS INTL   MOSUNNY   81  36  19 NW7       29.96F
NWS MEMPHIS      N/A     81 N/A N/A MISG        N/A
JACKSON        SUNNY    N/A N/A N/A N7        29.96F
BOLIVAR        SUNNY     79  41  25 CALM      29.95F
LEXINGTON      SUNNY     79  41  25 VRB3      29.95F
DYERSBURG      SUNNY    N/A N/A N/A MISG        N/A
UNION CITY     SUNNY     77  43  29 W7        29.94F
PARIS          SUNNY     73  41  31 CALM      29.96F
HUNTINGDON     SUNNY     77  41  27 CALM      29.94F


...EASTERN ARKANSAS...

CITY           SKY/WX    TMP DP  RH WIND       PRES   REMARKS
JONESBORO      SUNNY     81  40  23 VRB5      29.96F
WEST MEMPHIS   SUNNY     81  35  19 NE5       29.95F
BATESVILLE     SUNNY     79  45  29 CALM      29.98F
NEWPORT        SUNNY     79  43  27 N3        29.97F
WALNUT RIDGE   SUNNY     79  45  29 W3        29.96F
BLYTHEVILLE    SUNNY     81  42  25 NW5       29.96F
NW BLYTHEVILLE SUNNY     81  41  24 VRB3      29.96F
SEARCY         SUNNY     80  47  31 S5        29.99F
STUTTGART      SUNNY     79  41  25 NW8       29.99F
PINE BLUFF     SUNNY     78  41  26 W5        29.99F
MONTICELLO     SUNNY     80  52  37 VRB5      29.98F


...NORTH MISSISSIPPI...

CITY           SKY/WX    TMP DP  RH WIND       PRES   REMARKS
TUPELO         SUNNY     84  40  21 NW9       29.93F
OXFORD         SUNNY     81  39  22 NW8       29.97F
BATESVILLE     SUNNY     82  42  23 N6        29.96F
OLIVE BRANCH   MOSUNNY  N/A N/A N/A NW5       29.96S
TUNICA         SUNNY     79  39  24 NW9       29.97F
CLARKSDALE     SUNNY     81  45  28 VRB5G12   29.97F
CORINTH        SUNNY     81  36  19 VRB5      29.94F
GREENWOOD      SUNNY     83  45  26 VRB3      29.94F
COLUMBUS       SUNNY     86  51  29 NW8       29.91F
STARKVILLE     SUNNY     84  52  32 N6        29.94F
GOLDEN TRIANGL SUNNY     88  52  29 N7        29.92F


...SOUTHEAST MISSOURI...

CITY           SKY/WX    TMP DP  RH WIND       PRES   REMARKS
KENNETT        SUNNY     79  43  27 W3        29.94F
WEST PLAINS    SUNNY     77  47  34 VRB3      30.00F
POPLAR BLUFF   SUNNY     80  48  32 W6        29.94F
CAPE GIRARDEAU SUNNY     79  48  33 W12       29.92F


...NORTHWEST ALABAMA...

CITY           SKY/WX    TMP DP  RH WIND       PRES   REMARKS
MUSCLE SHOALS  SUNNY     85  42  22 VRB7      29.94F


...MIDDLE TENNESSEE...

CITY           SKY/WX    TMP DP  RH WIND       PRES   REMARKS
NASHVILLE      SUNNY     78  40  25 VRB5      29.95F
CLARKSVILLE    SUNNY     75  43  31 SW10      29.94F
COLUMBIA       SUNNY     77  43  29 CALM      29.94F


...WESTERN KENTUCKY...

CITY           SKY/WX    TMP DP  RH WIND       PRES   REMARKS
PADUCAH        SUNNY     79  43  27 W8        29.92F
FORT CAMPBELL  SUNNY     75  45  33 W3        29.94F


...CENTRAL ARKANSAS...

CITY           SKY/WX    TMP DP  RH WIND       PRES   REMARKS
LITTLE ROCK    MOSUNNY   82  42  24 N3        29.99F


SKY/WX REPORTED AS FAIR MEANS FEW OR NO CLOUDS BELOW
12 THOUSAND FEET.





USA.gov is the U.S. government's official web portal to all federal, state and local government web resources and services.